Regional Weather Roundup
Issued by NWS

Home | Current Version | Previous Version | Text Only | Print | Product List | Glossary Off
Versions: 1 2 3 4 5 6 7 8 9 10 11 12 13 14 15 16 17 18 19 20 21 22 23 24 25 26 27 28 29 30 31 32 33 34 35 36 37 38 39 40 41 42 43 44 45 46 47 48 49 50

000
ASUS44 KMEG 241310
RWRTN
TENNESSEE HOURLY STATE WEATHER ROUNDUP
NATIONAL WEATHER SERVICE MEMPHIS TN
800 AM CDT FRI OCT 24 2014

TNZ002-004-019-021-049-052-054-088>092-241400-
WEST TENNESSEE

CITY           SKY/WX    TMP DP  RH WIND       PRES   REMARKS
MEMPHIS INTL   PTCLDY    50  47  89 CALM      30.16R
NWS MEMPHIS      N/A     44 N/A N/A MISG        N/A
JACKSON        CLEAR     41  40  96 CALM      30.15S
DYERSBURG      CLEAR     45  34  65 CALM      30.17R
UNION CITY     CLOUDY    43  43 100 SE3       30.13F
PARIS          CLEAR     41  39  93 CALM      30.14S
HUNTINGDON     CLEAR     41  40  96 CALM      30.15R
LEXINGTON      CLEAR     41  39  93 CALM      30.13S
SAVANNAH       CLOUDY    43  43 100 CALM      30.15R VSB 0
$$

TNZ008-025-027-028-033-062-065-066-241400-
NORTH MIDDLE TENNESSEE

CITY           SKY/WX    TMP DP  RH WIND       PRES   REMARKS
NASHVILLE      MOSUNNY   48  45  89 W5        30.15R
CLARKSVILLE    PTCLDY    44  42  93 CALM      30.14S
SMYRNA         SUNNY     43  42  96 CALM      30.16R
COOKEVILLE       N/A     43  43 100 CALM      30.12R VSB 1
CROSSVILLE     SUNNY     46  42  86 E5        30.11S
$$

TNZ061-075-076-078-094-096-097-241400-
SOUTH MIDDLE TENNESSEE

CITY           SKY/WX    TMP DP  RH WIND       PRES   REMARKS
FAYETTEVILLE   SUNNY     43  41  93 MISG      30.12R
TULLAHOMA      SUNNY     39  37  93 CALM      30.13R
WINCHESTER     SUNNY     43  43 100 CALM      30.13R
MCMINNVILLE    PTSUNNY   43  43 100 CALM      30.12R
COLUMBIA         N/A    N/A N/A N/A CALM      30.14R
SHELBYVILLE      N/A     39  39 100 CALM      30.15R VSB 3/4
$$

TNZ017-018-042-046-047-241400-
NORTHEAST TENNESSEE

CITY           SKY/WX    TMP DP  RH WIND       PRES   REMARKS
TRI CITIES     FOG       40  40 100 CALM      30.14R VSB 1/8
ELIZABETHTON   SUNNY     37  37 100 CALM      30.14R
$$

TNZ012-013-036-069-073-074-241400-
CENTRAL EAST TENNESSEE

CITY           SKY/WX    TMP DP  RH WIND       PRES   REMARKS
KNOXVILLE      PTSUNNY   44  41  89 NE5       30.11S
OAK RIDGE      PTSUNNY   47  45  93 CALM      30.13S
GATLINBURG     SUNNY     39  37  93 CALM      30.12F
MORRISTOWN     SUNNY     45  41  87 NE6       30.13S
$$

TNZ083-085-099-241400-
SOUTHEAST TENNESSEE

CITY           SKY/WX    TMP DP  RH WIND       PRES   REMARKS
CHATTANOOGA    PTSUNNY   52  46  80 NE3       30.12R
$$

SKY/WX REPORTED AS FAIR MEANS FEW OR NO CLOUDS BELOW
12 THOUSAND FEET.




USA.gov is the U.S. government's official web portal to all federal, state and local government web resources and services.